Location: Auckland
(36.8500°S, 174.7800°E)
Time: 00:43:15
(UTC+13:00)

ISS - Visible Passes

Search period start: 30 November 2022 00:00
Search period end: 10 December 2022 00:00
Orbit: 411 x 420 km, 51.6° (Epoch: 29 November)

Date Brightness Start Highest point End Pass type
(mag) Time Alt. Az. Time Alt. Az. Time Alt. Az.
30 Nov -2.6 03:25:23 42° S 03:25:23 42° S 03:28:05 10° SE visible
30 Nov -0.9 05:00:55 10° SW 05:02:08 11° SSW 05:03:21 10° S visible
01 Dec -1.1 02:38:18 19° SE 02:38:18 19° SE 02:39:26 10° SE visible
01 Dec -1.1 04:11:10 10° WSW 04:13:09 15° SSW 04:15:16 10° SSE visible
02 Dec -1.6 03:24:01 21° SW 03:24:11 21° SSW 03:26:55 10° SSE visible
03 Dec -1.2 02:36:47 22° SSE 02:36:47 22° SSE 02:38:25 10° SSE visible
04 Dec -0.5 01:49:29 12° SE 01:49:29 12° SE 01:49:48 10° SE visible
04 Dec -0.8 03:22:23 10° SW 03:23:46 12° SSW 03:25:10 10° S visible
05 Dec -0.9 02:34:56 16° SSW 02:34:56 16° SSW 02:36:55 10° SSE visible
06 Dec -0.6 01:47:28 15° SSE 01:47:28 15° SSE 01:48:26 10° SSE visible
08 Dec -0.5 01:44:55 13° SSW 01:44:56 13° SSW 01:46:31 10° S visible
08 Dec -0.4 04:59:38 10° S 05:01:04 12° SSE 05:02:30 10° SE visible
09 Dec -0.6 00:56:54 15° S 00:56:54 15° S 00:58:06 10° SSE visible
